This demonstration page uses our WeatherBlox Daily Observations layout. Learn more.

Left ArrowRight Arrow

Hourly Observations for November 30, 2018

Temp ( °F °C ) Dew Point ( °F °C ) Humidity (%) Winds ( mph kmh ) Pressure ( in mb ) Visibility ( mi km ) Precip ( " mm )
12:07 am 00:07 Cloudy with Mist and Fog 38 3.3 36 2.2 93 93 N N/A 29.97 1015 5 8 N/A
12:53 am 00:53 Cloudy with Mist and Fog 38 3.3 35 1.7 89 89 N N/A 29.92 1013 5 8 N/A
1:15 am 01:15 Cloudy with Mist and Fog 39 3.9 36 2.2 89 89 NE 5 7 29.91 1013 5 8 N/A
1:53 am 01:53 Cloudy with Mist and Fog 38 3.3 36 2.2 93 93 N N/A 29.91 1013 5 8 N/A
2:53 am 02:53 Cloudy with Mist and Fog 39 3.9 36 2.2 89 89 N N/A 29.93 1014 5 8 N/A
3:24 am 03:24 Cloudy with Mist and Fog 39 3.9 36 2.2 89 89 NE 3 6 29.94 1014 3 4 N/A
3:46 am 03:46 Cloudy with Light Rain 38 3.3 36 2.2 93 93 N N/A 29.94 1014 2 3 N/A
3:53 am 03:53 Cloudy with Mist and Fog 38 3.3 36 2.2 93 93 N N/A 29.92 1013 2 3 N/A
3:57 am 03:57 Cloudy with Mist and Fog 38 3.3 36 2.2 93 93 N N/A 29.94 1014 2 3 N/A
4:24 am 04:24 Cloudy with Mist and Fog 38 3.3 36 2.2 93 93 N N/A 29.94 1014 2 3 N/A
4:43 am 04:43 Cloudy with Mist and Fog 39 3.9 36 2.2 89 89 N N/A 29.94 1014 2 2 N/A
4:53 am 04:53 Cloudy with Light Rain 38 3.3 37 2.8 97 97 N N/A 29.92 1013 1 2 N/A
5:53 am 05:53 Cloudy with Mist and Fog 38 3.3 37 2.8 97 97 N N/A 29.94 1014 1 2 N/A
6:15 am 06:15 Mostly Cloudy with Mist and Fog 38 3.3 37 2.8 97 97 N N/A 29.94 1014 1 1 N/A
6:32 am 06:32 Mostly Cloudy with Mist and Fog 38 3.3 37 2.8 97 97 N N/A 29.97 1015 1 2 N/A
6:49 am 06:49 Cloudy with Mist and Fog 39 4 37 3 93 93 N N/A 29.97 1015 2 3 N/A
6:53 am 06:53 Cloudy with Mist and Fog 39 3.9 37 2.8 93 93 N N/A 29.96 1014 2 3 N/A
7:44 am 07:44 Cloudy with Mist and Fog 39 3.9 38 3.3 96 96 N N/A 30.00 1016 3 5 N/A
7:53 am 07:53 Cloudy with Mist and Fog 39 3.9 38 3.3 96 96 N N/A 29.98 1015 3 5 N/A
8:04 am 08:04 Cloudy with Mist and Fog 39 3.9 38 3.3 96 96 N N/A 30.00 1016 3 4 N/A
8:12 am 08:12 Cloudy with Mist and Fog 39 3.9 38 3.3 96 96 N N/A 30.00 1016 2 2 N/A
8:51 am 08:51 Cloudy with Mist and Fog 39 4 37 3 93 93 N N/A 30.03 1017 1 1 N/A
8:53 am 08:53 Cloudy with Fog 40 4.4 38 3.3 93 93 N N/A 30.00 1016 1 1 N/A
9:53 am 09:53 Cloudy with Mist and Fog 41 5 41 5 100 100 N N/A 30.01 1016 1 2 N/A
10:27 am 10:27 Cloudy with Mist and Fog 43 6.1 42 5.6 97 97 N N/A 30.06 1018 2 3 N/A
10:35 am 10:35 Cloudy with Mist and Fog 43 6.1 42 5.6 97 97 NW 3 6 30.06 1018 2 3 N/A
10:53 am 10:53 Cloudy with Mist and Fog 44 6.7 42 5.6 93 93 NW 3 6 30.02 1017 2 3 N/A
11:21 am 11:21 Cloudy with Mist and Fog 45 7.2 42 5.6 90 90 N 3 6 30.03 1017 3 5 N/A
11:37 am 11:37 Cloudy with Mist and Fog 46 7.8 43 6.1 89 89 NNE 5 7 30.03 1017 3 5 N/A
11:53 am 11:53 Cloudy with Mist and Fog 46 7.8 43 6.1 89 89 NNE 3 6 30.01 1016 4 6 N/A
12:16 pm 12:16 Cloudy with Mist and Fog 47 8.3 44 6.7 90 90 N N/A 30.03 1017 5 8 N/A
12:53 pm 12:53 Cloudy with Mist and Fog 47 8.3 44 6.7 90 90 N N/A 30.01 1016 5 8 N/A
1:53 pm 13:53 Cloudy with Mist and Fog 48 8.9 44 6.7 86 86 NW 3 6 30.01 1016 5 8 N/A
2:53 pm 14:53 Cloudy with Mist and Fog 48 8.9 44 6.7 86 86 N N/A 30.01 1016 5 8 N/A
3:53 pm 15:53 Cloudy with Haze 48 8.9 43 6.1 83 83 N N/A 30.03 1017 5 8 N/A
4:53 pm 16:53 Cloudy with Mist and Fog 47 8.3 43 6.1 86 86 N N/A 30.05 1018 5 8 N/A
5:53 pm 17:53 Cloudy 46 7.8 42 5.6 86 86 NE 6 9 30.05 1018 8 13 N/A
6:53 pm 18:53 Cloudy with Mist and Fog 46 7.8 42 5.6 86 86 ENE 9 15 30.06 1018 6 10 N/A
7:33 pm 19:33 Cloudy with Mist and Fog 46 7.8 43 6.1 89 89 E 7 11 30.09 1019 4 6 N/A
7:53 pm 19:53 Cloudy with Mist and Fog 45 7.2 43 6.1 93 93 E 6 9 30.07 1018 5 8 N/A
8:01 pm 20:01 Cloudy with Mist and Fog 45 7.2 43 6.1 93 93 E 6 9 30.09 1019 5 8 N/A
8:53 pm 20:53 Cloudy 45 7.2 41 5 86 86 E 9 15 30.07 1018 9 14 N/A
9:26 pm 21:26 Cloudy 45 7.2 41 5 86 86 ESE 8 13 30.09 1019 9 14 N/A
9:53 pm 21:53 Cloudy 44 6.7 41 5 89 89 ESE 7 11 30.08 1019 8 13 N/A
10:53 pm 22:53 Cloudy 44 6.7 41 5 89 89 ENE 8 13 30.05 1018 7 11 N/A
11:49 pm 23:49 Cloudy with Mist and Fog 43 6 41 5 93 93 ENE 9 15 30.06 1018 3 5 N/A
11:53 pm 23:53 Cloudy with Mist and Fog 43 6.1 41 5 93 93 ENE 7 11 30.05 1018 3 5 N/A

Powered by AerisWeather